Durant, OK

3:31 PM CST on December 12, 2019 (GMT -0600)
Eaker

Weather History for KDUA - October, 2019

Change the Weather History Date:

Tuesday, October 1, 2019

  Actual Average (WUND) Record (WUND)
Temperature  
Mean Temperature 84 °F -  
Max Temperature 93 °F - - (-1)
Min Temperature 75 °F - - (-1)
Cooling Degree Days 19    
Growing Degree Days 34 (Base 50)    
Moisture  
Dew Point 67 °F    
Average Humidity 63    
Maximum Humidity 89    
Minimum Humidity 41    
Precipitation  
Precipitation 0.00 in - - ()
Sea Level Pressure  
Sea Level Pressure 29.99 in    
Wind  
Wind Speed 8 mph (SSE)    
Max Wind Speed 17 mph    
Max Gust Speed 25 mph    
Visibility 10 miles    
Events      
Averages and records for this station are not official NWS values.
T = Trace of Precipitation, MM = Missing Value Source: NWS Daily Summary

Daily Weather History Graph

Daily Weather History Graph

Search for Another Location

Airport or City:

Astronomy

Oct. 01, 2019 Rise Set
Actual Time 7:19 AM CDT 7:10 PM CDT
Civil Twilight 6:54 AM CDT 7:34 PM CDT
Nautical Twilight 6:25 AM CDT 8:03 PM CDT
Astronomical Twilight 5:56 AM CDT 8:32 PM CDT
Moon 10:29 AM CDT (10/1) 9:33 PM CDT (10/1)
Length of Visible Light 12h 40m
Length of Day
11h 50m
Waxing Crescent, 12% of the Moon is Illuminated
Oct 1
Waxing Crescent
Oct 5
First Quarter
Oct 13
Full
Oct 21
Last Quarter
Oct 27
New

Hourly Weather History & Observations

Time (CDT) Temp. Heat Index Dew Point Humidity Pressure Visibility Wind Dir Wind Speed Gust Speed Precip Events Conditions
12:14 AM 78.8 °F - 66.2 °F 65% 29.99 in 10.0 mi SSE 5.8 mph - N/A   Clear
12:35 AM 77.0 °F - 66.2 °F 69% 29.99 in 10.0 mi SSE 4.6 mph - N/A   Clear
12:54 AM 75.2 °F - 66.2 °F 73% 29.99 in 10.0 mi SSE 4.6 mph - N/A   Clear
1:14 AM 75.2 °F - 66.2 °F 73% 29.99 in 10.0 mi SSE 5.8 mph - N/A   Clear
1:34 AM 75.2 °F - 66.2 °F 73% 29.99 in 10.0 mi SSE 5.8 mph - N/A   Clear
2:34 AM 75.2 °F - 68.0 °F 78% 30.00 in 10.0 mi South 5.8 mph - N/A   Clear
3:15 AM 75.2 °F - 68.0 °F 78% 30.00 in 10.0 mi SSE 6.9 mph - N/A   Clear
3:35 AM 75.2 °F - 68.0 °F 78% 29.99 in 10.0 mi SSE 6.9 mph - N/A   Clear
3:56 AM 75.2 °F - 69.8 °F 83% 29.99 in 10.0 mi South 8.1 mph - N/A   Clear
4:14 AM 75.2 °F - 69.8 °F 83% 29.99 in 10.0 mi South 6.9 mph - N/A   Clear
4:35 AM 75.2 °F - 69.8 °F 83% 30.00 in 10.0 mi South 6.9 mph - N/A   Clear
4:56 AM 75.2 °F - 69.8 °F 83% 30.00 in 10.0 mi South 9.2 mph - N/A   Clear
5:54 AM 75.2 °F - 69.8 °F 83% 30.01 in 10.0 mi South 8.1 mph - N/A   Clear
6:34 AM 75.2 °F - 69.8 °F 83% 30.01 in 10.0 mi South 6.9 mph - N/A   Clear
7:14 AM 75.2 °F - 69.8 °F 83% 30.02 in 10.0 mi South 6.9 mph - N/A   Clear
7:54 AM 75.2 °F - 71.6 °F 89% 30.03 in 10.0 mi South 9.2 mph - N/A   Clear
8:14 AM 75.2 °F - 71.6 °F 89% 30.03 in 10.0 mi South 8.1 mph - N/A   Clear
8:34 AM 78.8 °F - 71.6 °F 78% 30.03 in 10.0 mi South 9.2 mph - N/A   Clear
8:54 AM 78.8 °F - 71.6 °F 78% 30.04 in 10.0 mi South 10.4 mph - N/A   Scattered Clouds
9:14 AM 80.6 °F 84.6 °F 71.6 °F 74% 30.05 in 10.0 mi South 12.7 mph - N/A   Mostly Cloudy
9:35 AM 80.6 °F 84.6 °F 71.6 °F 74% 30.05 in 10.0 mi SSW 10.4 mph - N/A   Scattered Clouds
10:14 AM 82.4 °F 86.3 °F 69.8 °F 66% 30.05 in 10.0 mi South 12.7 mph - N/A   Clear
11:35 AM 86.0 °F 88.2 °F 66.2 °F 51% 30.04 in 10.0 mi South 15.0 mph - N/A   Clear
11:55 AM 87.8 °F 90.4 °F 66.2 °F 49% 30.04 in 10.0 mi South 15.0 mph 21.9 mph N/A   Clear
12:15 PM 87.8 °F 90.4 °F 66.2 °F 49% 30.04 in 10.0 mi South 12.7 mph - N/A   Scattered Clouds
12:34 PM 89.6 °F 92.2 °F 66.2 °F 46% 30.03 in 10.0 mi South 17.3 mph 23.0 mph N/A   Scattered Clouds
12:54 PM 89.6 °F 92.2 °F 66.2 °F 46% 30.03 in 10.0 mi SSE 15.0 mph - N/A   Scattered Clouds
1:35 PM 89.6 °F 92.2 °F 66.2 °F 46% 30.00 in 10.0 mi South 17.3 mph 21.9 mph N/A   Scattered Clouds
1:55 PM 89.6 °F 92.2 °F 66.2 °F 46% 29.99 in 10.0 mi South 15.0 mph 25.3 mph N/A   Scattered Clouds
2:15 PM 91.4 °F 94.0 °F 66.2 °F 43% 29.98 in 10.0 mi South 13.8 mph 19.6 mph N/A   Scattered Clouds
2:34 PM 91.4 °F 93.2 °F 64.4 °F 41% 29.97 in 10.0 mi South 13.8 mph 19.6 mph N/A   Scattered Clouds
2:54 PM 91.4 °F 94.0 °F 66.2 °F 43% 29.96 in 10.0 mi SSE 13.8 mph 19.6 mph N/A   Scattered Clouds
3:37 PM 91.4 °F 93.2 °F 64.4 °F 41% 29.95 in 10.0 mi South 15.0 mph - N/A   Scattered Clouds
4:34 PM 93.2 °F 96.2 °F 66.2 °F 41% 29.93 in 10.0 mi South 15.0 mph - N/A   Scattered Clouds
4:54 PM 93.2 °F 96.2 °F 66.2 °F 41% 29.93 in 10.0 mi South 11.5 mph - N/A   Scattered Clouds
5:35 PM 91.4 °F 94.0 °F 66.2 °F 43% 29.92 in 10.0 mi SSE 12.7 mph - N/A   Clear
5:55 PM 91.4 °F 94.0 °F 66.2 °F 43% 29.92 in 10.0 mi SSE 12.7 mph 16.1 mph N/A   Clear
6:14 PM 91.4 °F 94.0 °F 66.2 °F 43% 29.93 in 10.0 mi SSE 10.4 mph 17.3 mph N/A   Clear
6:37 PM 89.6 °F 91.1 °F 64.4 °F 43% 29.93 in 10.0 mi SSE 9.2 mph - N/A   Clear
6:56 PM 87.8 °F 89.4 °F 64.4 °F 46% 29.93 in 10.0 mi SSE 6.9 mph - N/A   Clear
7:16 PM 84.2 °F 86.6 °F 66.2 °F 55% 29.94 in 10.0 mi SSE 6.9 mph - N/A   Scattered Clouds
7:34 PM 82.4 °F 84.6 °F 66.2 °F 58% 29.94 in 10.0 mi SSE 5.8 mph - N/A   Mostly Cloudy
7:54 PM 82.4 °F 83.9 °F 64.4 °F 54% 29.94 in 10.0 mi SE 4.6 mph - N/A   Scattered Clouds
8:15 PM 80.6 °F 82.3 °F 64.4 °F 58% 29.94 in 10.0 mi SSE 5.8 mph - N/A   Scattered Clouds
8:55 PM 78.8 °F - 66.2 °F 65% 29.95 in 10.0 mi SSE 4.6 mph - N/A   Overcast
9:35 PM 78.8 °F - 64.4 °F 61% 29.95 in 10.0 mi SSE 5.8 mph - N/A   Scattered Clouds
9:54 PM 78.8 °F - 64.4 °F 61% 29.95 in 10.0 mi SE 5.8 mph - N/A   Clear
10:54 PM 78.8 °F - 66.2 °F 65% 29.97 in 10.0 mi SSE 8.1 mph - N/A   Clear
11:15 PM 78.8 °F - 66.2 °F 65% 29.97 in 10.0 mi SSE 5.8 mph - N/A   Clear
11:34 PM 78.8 °F - 66.2 °F 65% 29.97 in 10.0 mi SSE 6.9 mph - N/A   Clear
11:54 PM 78.8 °F - 66.2 °F 65% 29.97 in 10.0 mi SSE 8.1 mph - N/A   Clear